Location: Clanezzo
(45.7500°N, 9.6000°E)
Time: 04:13:27
(UTC+00:00)

Meteor 1-11 Rocket - Pass Details

Date: 12 May 2021
Orbit: 831 x 916 km, 81.2° (Epoch: 18 June)

Event Time Altitude Azimuth Distance (km) Brightness Sun altitude
Rises 20:31:29 0° 352° (N) 3,565 8.0 -15.6°
Reaches altitude 10° 20:34:03 10° 357° (N) 2,617 7.0 -15.9°
Maximum altitude 20:39:55 55° 75° (ENE) 1,084 4.1 -16.6°
Enters shadow 20:43:03 27° 141° (SE) 1,665 4.6 -16.9°
